STARLINK-1532 (46068 NORAD) Tracking and Keplerian Element Data

This shows tracking and keplerian element data for the satellite.

Feedback or suggestion? Click here.




ElementValue
Catalog46068
NameSTARLINK-1532
Epoch Orbit1960
Epoch Day338.55491552
Epoch Year2020
RAAN85.4554
Inclination52.993
Eccentricity0.0001566
Argument of Perigee72.5121
Mean Anonmoly287.6037
Mean Motion15.0558912
Decay Rate-8.46E-06
L11 46068U 20055AT 20338.55491552 -.00000846 00000-0 -38887-4 0 9996
L22 46068 52.9930 85.4554 0001566 72.5121 287.6037 15.05589120 19606

Live tracking and technical data element details for STARLINK-1532 (NORAD 46068). STARLINK-1532 can be tracked NOW for your location showing map with azimuth and elevation plus other details from your city location.

Track the satellite on the map from your city or location and see movement details for azimuth, elevation, latitude, longitude, range, height, and movement on the map or in text.







IsCatalogInMostPopularTable: catalog: 46068, numindb: 27
Update: records affected: 1



GetName: 46068 STARLINK-1532

Hit Count: updated at: Sun, 06 Dec 2020 02:07:45 GMT